Location: Fernhill
(41.0167°S, 175.6333°E)
Time: 23:55:30
(UTC+00:00)

CZ-4B DEB - Pass Details

Date: 08 November 2025
Orbit: 834 x 854 km, 98.9° (Epoch: 04 December)

Event Time Altitude Azimuth Distance (km) Brightness Sun altitude
Rises 09:19:12 0° 168° (SSE) 3,452 7.9 -21.2°
Reaches altitude 10° 09:21:36 10° 168° (SSE) 2,507 7.1 -21.5°
Maximum altitude 09:27:11 81° 254° (WSW) 869 4.2 -22.1°
Enters shadow 09:30:28 25° 339° (NNW) 1,637 5.4 -22.5°
